Location: Ottawa
(45.4170°N, 75.7000°W)
Time: 04:24:28
(UTC-04:00)

Amateur Radio Satellites - All Passes

Search period start: 29 September 2016 03:54
Search period end: 30 September 2016 03:54
Location: Ottawa, 45.4170°N, 75.7000°W

Satellite Date Start Highest point End Downlink Frequencies (MHz)
Time Altitude Azimuth
SWISSCUBE 29 Sep 04:03:22 04:06:00 15° 270° (W) 04:08:40 437.505
KKS-1 29 Sep 04:08:25 04:12:53 82° 74° (ENE) 04:17:20 437.445
BEESAT 29 Sep 04:17:07 04:18:58 12° 272° (W) 04:20:50 436.000
AO-85 29 Sep 04:18:43 04:21:41 18° 35° (NE) 04:24:30 145.980
Oscar 19 29 Sep 04:20:36 04:23:38 16° 302° (WNW) 04:26:41 437.125/150
AIST 2 29 Sep 04:22:57 04:27:03 79° 306° (NW) 04:31:13 435.215
YUBILEINY 29 Sep 04:32:44 04:41:07 48° 287° (WNW) 04:49:32 435.215
RS-15 29 Sep 04:34:19 04:46:46 73° 50° (NE) 04:58:58 29.354- 29.394
STARS 29 Sep 04:38:43 04:43:07 84° 72° (ENE) 04:47:30 437.465
Cosmos 2504 29 Sep 04:38:58 04:46:22 89° 93° (E) 04:53:34 435.465 / 435.565
AO-7 29 Sep 04:55:09 05:03:28 73° 106° (ESE) 05:11:45 29.400- 29.500
CUSAT 1 29 Sep 05:03:40 05:10:17 29° 62° (ENE) 05:16:06 437.405
DANDE 29 Sep 05:03:52 05:09:06 18° 54° (NE) 05:14:13 436.750
CUBESAT XI-V 29 Sep 05:14:45 05:19:27 80° 76° (ENE) 05:24:12 437.345
ITAMSAT 1 29 Sep 05:15:14 05:19:50 32° 295° (WNW) 05:24:26 435.822/435.867
PCSat 29 Sep 05:15:22 05:20:46 71° 304° (NW) 05:26:13 145.827
HORYU 2 29 Sep 05:18:19 05:21:23 18° 92° (E) 05:24:27 437.375
MOZHAYETS 4 29 Sep 05:32:46 05:34:08 11° 273° (W) 05:35:30
AIST 1 29 Sep 05:34:49 05:39:12 77° 97° (E) 05:43:35
KKS-1 29 Sep 05:49:00 05:50:01 11° 272° (W) 05:51:01 437.445
BRITE-PL 29 Sep 05:54:14 05:58:13 26° 92° (E) 06:01:58 437.365/2234.400
AO-85 29 Sep 05:58:28 06:02:40 75° 237° (WSW) 06:06:35 145.980
AIST 2 29 Sep 06:03:53 06:06:13 15° 326° (NNW) 06:08:35 435.215
STARS 29 Sep 06:19:37 06:20:03 10° 272° (W) 06:20:28 437.465
Cosmos 2504 29 Sep 06:36:04 06:40:48 18° 299° (WNW) 06:45:30 435.465 / 435.565
NOAA 18 29 Sep 06:36:40 06:40:44 21° 92° (E) 06:44:49 137.9125
YUBILEINY 29 Sep 06:39:17 06:40:40 10° 313° (NW) 06:42:03 435.215
DANDE 29 Sep 06:45:11 06:53:34 66° 75° (ENE) 07:01:24 436.750
CUSAT 1 29 Sep 06:45:18 06:53:01 66° 265° (W) 06:59:26 437.405
RS-15 29 Sep 06:47:35 06:58:28 39° 254° (WSW) 07:09:09 29.354- 29.394
AO-7 29 Sep 06:48:41 06:55:36 31° 307° (NW) 07:02:32 29.400- 29.500
STRAND 1 29 Sep 06:49:04 06:53:49 41° 68° (ENE) 06:58:38 437.568
HORYU 2 29 Sep 06:53:55 06:58:13 49° 289° (WNW) 07:02:31 437.375
CUBESAT XI-V 29 Sep 06:55:36 06:57:25 12° 273° (W) 06:59:15 437.345
PCSat 29 Sep 07:01:40 07:05:10 17° 326° (NW) 07:08:41 145.827
LilacSat-2 29 Sep 07:01:51 07:05:33 44° 99° (E) 07:09:14 437.200
NOAA 15 29 Sep 07:02:56 07:08:09 53° 100° (E) 07:13:17 137.62
GONETS M04 29 Sep 07:03:48 07:08:02 15° 72° (ENE) 07:12:15
GOMX 1 29 Sep 07:14:29 07:18:55 69° 101° (ESE) 07:23:06 467.674
AIST 1 29 Sep 07:15:52 07:17:23 12° 295° (WNW) 07:18:54
CUTE-I 29 Sep 07:23:35 07:28:56 67° 102° (ESE) 07:34:16 437.470
Cubesat XI-IV 29 Sep 07:23:52 07:29:13 67° 102° (ESE) 07:34:33 437.490
DOVE 4 29 Sep 07:29:04 07:33:03 40° 98° (E) 07:36:57 437.250
BRITE-PL 29 Sep 07:32:24 07:36:51 36° 292° (WNW) 07:40:57 437.365/2234.400
O/OREOS (USA 219) 29 Sep 07:39:04 07:43:38 83° 113° (ESE) 07:48:15 437.305
PRISM 29 Sep 07:41:48 07:43:46 13° 60° (ENE) 07:45:43 437.425
Cosmos 2499 29 Sep 07:48:19 07:53:08 20° 80° (E) 07:57:56 435.465 / 435.565
NOAA 18 29 Sep 08:16:25 08:21:47 59° 290° (WNW) 08:27:09 137.9125
HO-68 29 Sep 08:20:12 08:26:42 36° 96° (E) 08:33:11 435.675
SEEDS 29 Sep 08:22:49 08:26:07 21° 93° (E) 08:29:22 437.485
CUTE 1.7 + AOD 2 29 Sep 08:23:37 08:27:26 30° 96° (E) 08:31:13 437.475
CANX-2 29 Sep 08:25:02 08:29:02 36° 97° (E) 08:33:00 2200.000
DANDE 29 Sep 08:28:41 08:35:49 32° 275° (W) 08:42:34 436.750
STRAND 1 29 Sep 08:28:51 08:33:08 27° 266° (W) 08:37:28 437.568
BEESAT 2 29 Sep 08:29:35 08:31:58 15° 35° (NE) 08:34:21 435.950
CUSAT 1 29 Sep 08:30:18 08:33:16 13° 287° (WNW) 08:36:05 437.405
CINEMA 3 29 Sep 08:30:40 08:34:43 48° 99° (E) 08:38:50 145.822/145.860
LilacSat-2 29 Sep 08:37:06 08:39:31 16° 296° (WNW) 08:41:55 437.200
AAUSAT CUBESAT 2 29 Sep 08:41:32 08:44:28 18° 92° (E) 08:47:23 437.432
NOAA 15 29 Sep 08:43:24 08:47:34 24° 299° (WNW) 08:51:42 137.62
GOMX 1 29 Sep 08:54:14 08:56:24 14° 301° (WNW) 08:58:31 467.674
GONETS M04 29 Sep 08:54:22 09:03:06 70° 94° (E) 09:11:55
CUTE-I 29 Sep 09:04:42 09:08:27 20° 301° (WNW) 09:12:14 437.470
Cubesat XI-IV 29 Sep 09:05:00 09:08:47 20° 300° (WNW) 09:12:34 437.490
DOVE 4 29 Sep 09:07:28 09:10:31 20° 296° (WNW) 09:13:30 437.250
BEESAT 3 29 Sep 09:07:49 09:11:40 46° 49° (NE) 09:15:30 437.485
ANTELSAT 29 Sep 09:08:33 09:10:52 15° 61° (ENE) 09:13:12 437.575/2403.000
PRISM 29 Sep 09:14:21 09:18:30 70° 256° (WSW) 09:22:42 437.425
O/OREOS (USA 219) 29 Sep 09:21:05 09:23:42 15° 313° (NW) 09:26:19 437.305
COMPASS 1 29 Sep 09:26:22 09:30:36 70° 102° (ESE) 09:34:47 437.405
FUNcube-1 29 Sep 09:27:02 09:30:29 22° 94° (E) 09:33:58 145.935
TIGRISAT 29 Sep 09:27:39 09:30:49 21° 65° (ENE) 09:34:01 435.000
CUBEBUG 2 29 Sep 09:28:21 09:32:35 56° 100° (E) 09:36:55 437.445
Cosmos 2499 29 Sep 09:38:17 09:45:24 75° 280° (W) 09:52:31 435.465 / 435.565
UWE-3 29 Sep 09:43:21 09:47:36 54° 100° (E) 09:51:56 435.000/436.395/437.385
DELFI C3 29 Sep 09:49:26 09:51:51 15° 91° (E) 09:54:15 145.870
SEEDS 29 Sep 09:57:58 10:01:56 38° 290° (WNW) 10:05:52 437.485
CUTE 1.7 + AOD 2 29 Sep 09:59:32 10:03:11 27° 293° (WNW) 10:06:49 437.475
NOAA 18 29 Sep 10:00:39 10:01:21 10° 309° (NW) 10:02:02 137.9125
CANX-2 29 Sep 10:01:15 10:04:42 24° 294° (WNW) 10:08:08 2200.000
Oscar 11 29 Sep 10:04:36 10:08:54 56° 100° (E) 10:13:12 145.826/435.025
BEESAT 2 29 Sep 10:06:21 10:10:23 89° 51° (NE) 10:14:24 435.950
UNISAT 6 29 Sep 10:07:35 10:11:44 56° 73° (ENE) 10:15:56 437.425
HO-68 29 Sep 10:07:47 10:14:36 49° 295° (WNW) 10:21:23 435.675
CINEMA 3 29 Sep 10:08:48 10:11:32 17° 296° (WNW) 10:14:18 145.822/145.860
JAS-2 29 Sep 10:08:49 10:13:03 17° 50° (NE) 10:17:31 435.910
ZACube-1 29 Sep 10:09:19 10:13:39 66° 101° (E) 10:18:03 437.345
AAUSAT CUBESAT 2 29 Sep 10:16:10 10:20:10 43° 289° (WNW) 10:24:07 437.432
HUMSAT D 29 Sep 10:17:38 10:20:26 17° 91° (E) 10:23:14 437.325/437.525
QB50P2 29 Sep 10:23:12 10:25:15 13° 61° (ENE) 10:27:19 145.880/145.840
POLYITAN 1 29 Sep 10:25:24 10:27:27 13° 61° (ENE) 10:29:31 437.675
PHONESAT 2.4 29 Sep 10:36:24 10:38:02 14° 158° (SSE) 10:39:41 2401.200-2431.200
ANTELSAT 29 Sep 10:42:53 10:47:06 62° 259° (W) 10:51:21 437.575/2403.000
BEESAT 3 29 Sep 10:46:09 10:49:02 19° 247° (WSW) 10:51:53 437.485
GONETS M04 29 Sep 10:53:17 11:00:44 29° 296° (WNW) 11:08:15
BUGSAT 1 29 Sep 10:58:21 10:59:12 11° 59° (ENE) 11:00:02 437.445
DUCHIFAT 1 29 Sep 10:59:29 11:02:54 25° 66° (ENE) 11:06:20 145.980
FUNcube-1 29 Sep 11:02:49 11:06:50 37° 290° (WNW) 11:10:54 145.935
QB50P1 29 Sep 11:03:02 11:06:44 31° 68° (ENE) 11:10:26 145.935-145.965
TIGRISAT 29 Sep 11:03:17 11:07:17 40° 262° (W) 11:11:18 435.000
COMPASS 1 29 Sep 11:03:36 11:05:36 13° 299° (WNW) 11:07:36 437.405
AIST 2 29 Sep 11:04:25 11:07:37 21° 39° (NE) 11:10:49 435.215
CUBEBUG 2 29 Sep 11:06:11 11:08:49 16° 297° (WNW) 11:11:30 437.445
POPSAT HIP 1 29 Sep 11:16:26 11:20:21 41° 71° (ENE) 11:24:19 437.405
UWE-3 29 Sep 11:20:55 11:23:41 17° 297° (WNW) 11:26:29 435.000/436.395/437.385
ESTCUBE 1 29 Sep 11:22:56 11:25:22 14° 89° (E) 11:27:47 437.505/2401.250
DELFI C3 29 Sep 11:23:04 11:26:58 47° 288° (WNW) 11:30:48 145.870
NANOSAT C BR1 29 Sep 11:31:25 11:35:32 57° 73° (ENE) 11:39:39 145.865
Cosmos 2499 29 Sep 11:36:24 11:39:56 14° 303° (WNW) 11:43:30 435.465 / 435.565
Oscar 11 29 Sep 11:41:52 11:44:37 17° 298° (WNW) 11:47:22 145.826/435.025
UNISAT 6 29 Sep 11:46:29 11:48:50 14° 270° (W) 11:51:12 437.425
ZACube-1 29 Sep 11:47:06 11:49:27 15° 298° (WNW) 11:51:50 437.345
JAS-2 29 Sep 11:50:05 11:56:41 72° 72° (ENE) 12:04:08 435.910
HUMSAT D 29 Sep 11:52:12 11:56:18 48° 288° (WNW) 12:00:26 437.325/437.525
QB50P2 29 Sep 11:56:21 12:00:32 68° 258° (WSW) 12:04:44 145.880/145.840
HO-68 29 Sep 11:58:31 12:00:39 12° 317° (NW) 12:02:49 435.675
POLYITAN 1 29 Sep 11:58:34 12:02:44 67° 258° (WSW) 12:06:55 437.675
AISAT 29 Sep 12:07:41 12:10:59 20° 93° (E) 12:14:16 437.250
PHONESAT 2.4 29 Sep 12:11:01 12:13:37 29° 174° (S) 12:16:13 2401.200-2431.200
PCSat 29 Sep 12:18:10 12:22:51 28° 44° (NE) 12:27:31 145.827
Oscar 19 29 Sep 12:21:10 12:25:03 22° 61° (ENE) 12:28:55 437.125/150
50 SAT 29 Sep 12:24:04 12:27:09 25° 95° (E) 12:30:14 437.505
BUGSAT 1 29 Sep 12:29:51 12:33:57 84° 257° (WSW) 12:38:02 437.445
DUCHIFAT 1 29 Sep 12:34:44 12:38:29 31° 264° (W) 12:42:14 145.980
DX 1 29 Sep 12:37:16 12:40:51 24° 95° (E) 12:44:23 434.975-435.025
QB50P1 29 Sep 12:38:59 12:42:31 26° 265° (W) 12:46:02 145.935-145.965
AIST 2 29 Sep 12:42:19 12:46:28 61° 238° (WSW) 12:50:37 435.215
YUBILEINY 29 Sep 12:43:41 12:50:22 24° 61° (ENE) 12:56:59 435.215
CUBEBUG 1 29 Sep 12:50:22 12:54:43 71° 103° (ESE) 12:59:01 437.445
VELOX 1 29 Sep 12:50:26 12:54:45 53° 100° (E) 12:59:02 145.980
POPSAT HIP 1 29 Sep 12:53:19 12:56:20 19° 267° (W) 12:59:21 437.405
M-CUBED/EXP-1 PRIME 29 Sep 12:56:18 12:58:59 23° 101° (ESE) 13:01:38 437.505
ESTCUBE 1 29 Sep 12:58:06 13:02:37 64° 287° (WNW) 13:07:05 437.505/2401.250
NANOSAT C BR1 29 Sep 13:09:27 13:11:38 14° 270° (W) 13:13:49 145.865
ITAMSAT 1 29 Sep 13:20:44 13:22:13 11° 54° (NE) 13:23:43 435.822/435.867
SPROUT 29 Sep 13:23:23 13:27:39 69° 102° (ESE) 13:31:53 437.525
Gurwin Techsat 1B 29 Sep 13:30:52 13:35:50 42° 68° (ENE) 13:40:49 435.225
JAS-2 29 Sep 13:37:19 13:42:29 23° 273° (W) 13:48:08 435.910
UKube-1 29 Sep 13:40:53 13:45:14 88° 105° (ESE) 13:49:32 .
AISAT 29 Sep 13:43:29 13:47:38 41° 290° (WNW) 13:51:45 437.250
PHONESAT 2.4 29 Sep 13:46:49 13:49:20 25° 190° (S) 13:51:51 2401.200-2431.200
AUBIESAT-1 29 Sep 13:51:20 13:54:40 83° 289° (WNW) 13:58:00 437.475
50 SAT 29 Sep 13:57:35 14:00:35 24° 292° (WNW) 14:03:34 437.505
Oscar 19 29 Sep 13:58:50 14:03:57 58° 259° (W) 14:09:06 437.125/150
PCSat 29 Sep 14:01:15 14:06:34 56° 244° (WSW) 14:11:50 145.827
AO-7 29 Sep 14:05:40 14:12:33 30° 53° (NE) 14:19:25 29.400- 29.500
DX 1 29 Sep 14:13:10 14:17:06 34° 292° (WNW) 14:21:01 434.975-435.025
SWISSCUBE 29 Sep 14:22:23 14:25:03 15° 90° (E) 14:27:44 437.505
VELOX 1 29 Sep 14:27:52 14:30:49 18° 298° (WNW) 14:33:46 145.980
Cosmos 2504 29 Sep 14:27:56 14:34:42 36° 71° (ENE) 14:41:49 435.465 / 435.565
CUBEBUG 1 29 Sep 14:28:16 14:30:26 14° 300° (WNW) 14:32:36 437.445
M-CUBED/EXP-1 PRIME 29 Sep 14:30:56 14:33:28 21° 298° (WNW) 14:36:01 437.505
SO-50 29 Sep 14:33:52 14:37:44 24° 113° (ESE) 14:41:34 436.795
BEESAT 29 Sep 14:34:45 14:37:57 18° 91° (E) 14:41:08 436.000
TISAT 1 29 Sep 14:37:35 14:41:46 88° 96° (E) 14:45:57 437.305
Cosmos 2491 29 Sep 14:38:10 14:46:28 50° 89° (E) 14:54:51 435.465 / 435.565
YUBILEINY 29 Sep 14:39:36 14:48:21 85° 263° (W) 14:57:02 435.215
ITAMSAT 1 29 Sep 14:55:37 15:00:44 69° 72° (ENE) 15:05:55 435.822/435.867
SPROUT 29 Sep 15:00:58 15:03:02 13° 300° (WNW) 15:05:07 437.525
Gurwin Techsat 1B 29 Sep 15:11:23 15:15:54 28° 266° (W) 15:20:28 435.225
UKube-1 29 Sep 15:19:16 15:20:36 11° 302° (WNW) 15:21:54 .
PHONESAT 2.4 29 Sep 15:24:21 15:24:50 10° 206° (SSW) 15:25:18 2401.200-2431.200
AIST 1 29 Sep 15:40:06 15:43:35 23° 71° (ENE) 15:47:01
MOZHAYETS 4 29 Sep 15:45:39 15:48:39 17° 90° (E) 15:51:39
ITUPSAT 1 29 Sep 15:46:22 15:51:13 82° 103° (ESE) 15:56:03 437.325
AO-7 29 Sep 15:56:20 16:04:38 74° 253° (WSW) 16:12:59 29.400- 29.500
SWISSCUBE 29 Sep 15:58:32 16:03:20 69° 287° (WNW) 16:08:06 437.505
KKS-1 29 Sep 15:58:51 16:00:57 13° 90° (E) 16:03:03 437.445
O/OREOS (USA 219) 29 Sep 16:08:03 16:12:04 29° 55° (NE) 16:16:04 437.305
BEESAT 29 Sep 16:11:23 16:16:06 58° 289° (WNW) 16:20:47 436.000
SO-50 29 Sep 16:13:14 16:17:57 51° 312° (NW) 16:22:37 436.795
TISAT 1 29 Sep 16:15:56 16:16:45 10° 302° (WNW) 16:17:35 437.305
HORYU 2 29 Sep 16:18:22 16:21:48 23° 64° (ENE) 16:25:14 437.375
Cosmos 2504 29 Sep 16:21:10 16:28:13 48° 270° (W) 16:35:44 435.465 / 435.565
STARS 29 Sep 16:27:41 16:29:37 13° 90° (E) 16:31:32 437.465
Cosmos 2491 29 Sep 16:35:18 16:43:28 41° 290° (WNW) 16:51:45 435.465 / 435.565
ITAMSAT 1 29 Sep 16:37:32 16:40:43 16° 270° (W) 16:43:56 435.822/435.867
YUBILEINY 29 Sep 16:38:23 16:43:46 18° 285° (WNW) 16:49:09 435.215
NOAA 15 29 Sep 16:47:59 16:51:18 17° 57° (ENE) 16:54:36 137.62
GOMX 1 29 Sep 16:48:35 16:51:23 15° 60° (ENE) 16:54:06 467.674
BRITE-PL 29 Sep 17:05:33 17:10:53 43° 69° (ENE) 17:16:04 437.365/2234.400
CUTE-I 29 Sep 17:09:37 17:13:28 21° 60° (ENE) 17:17:20 437.470
Cubesat XI-IV 29 Sep 17:10:03 17:13:55 21° 60° (ENE) 17:17:47 437.490
CUBESAT XI-V 29 Sep 17:10:12 17:13:19 17° 90° (E) 17:16:24 437.345
AIST 1 29 Sep 17:17:24 17:21:14 32° 269° (W) 17:25:01
MOZHAYETS 4 29 Sep 17:21:36 17:26:10 57° 288° (WNW) 17:30:43
ITUPSAT 1 29 Sep 17:25:53 17:28:24 14° 302° (WNW) 17:30:56 437.325
KKS-1 29 Sep 17:33:34 17:37:59 67° 287° (WNW) 17:42:21 437.445
LilacSat-2 29 Sep 17:46:01 17:49:19 29° 69° (ENE) 17:52:37 437.200
O/OREOS (USA 219) 29 Sep 17:47:20 17:51:32 35° 254° (WSW) 17:55:41 437.305
HORYU 2 29 Sep 17:53:59 17:58:07 40° 261° (W) 18:02:18 437.375
AO-7 29 Sep 17:54:19 17:58:48 15° 273° (W) 18:03:19 29.400- 29.500
SO-50 29 Sep 17:57:07 17:59:30 13° 333° (NNW) 18:01:52 436.795
STARS 29 Sep 18:02:05 18:06:26 68° 287° (WNW) 18:10:46 437.465
NOAA 18 29 Sep 18:04:43 18:09:57 49° 68° (ENE) 18:15:12 137.9125
CUSAT 1 29 Sep 18:07:23 18:12:29 24° 80° (E) 18:18:12 437.405
GOMX 1 29 Sep 18:23:28 18:28:51 88° 256° (WSW) 18:33:57 467.674
NOAA 15 29 Sep 18:25:06 18:30:25 80° 256° (WSW) 18:35:47 137.62
DOVE 4 29 Sep 18:35:49 18:40:39 56° 73° (ENE) 18:45:14 437.250
BRITE-PL 29 Sep 18:44:25 18:49:24 31° 266° (W) 18:54:19 437.365/2234.400
CUBESAT XI-V 29 Sep 18:46:26 18:51:03 55° 288° (WNW) 18:55:36 437.345
CUTE-I 29 Sep 18:47:48 18:53:03 63° 258° (WSW) 18:58:21 437.470
Cubesat XI-IV 29 Sep 18:48:16 18:53:31 63° 258° (WSW) 18:58:49 437.490
HO-68 29 Sep 18:51:18 18:57:37 35° 60° (ENE) 19:03:57 435.675
STRAND 1 29 Sep 18:59:32 19:01:10 11° 87° (E) 19:02:48 437.568
RS-15 29 Sep 19:01:25 19:11:21 35° 105° (ESE) 19:21:41 29.354- 29.394
GONETS M04 29 Sep 19:02:10 19:10:20 39° 69° (ENE) 19:18:23
SEEDS 29 Sep 19:16:50 19:19:55 20° 65° (ENE) 19:23:03 437.485
CUTE 1.7 + AOD 2 29 Sep 19:18:20 19:21:58 28° 68° (ENE) 19:25:39 437.475
CANX-2 29 Sep 19:19:47 19:23:35 33° 69° (ENE) 19:27:27 2200.000
LilacSat-2 29 Sep 19:20:44 19:23:39 21° 266° (W) 19:26:35 437.200
Cosmos 2499 29 Sep 19:25:23 19:32:34 44° 73° (ENE) 19:40:13 435.465 / 435.565
CINEMA 3 29 Sep 19:34:10 19:38:30 58° 73° (ENE) 19:42:42 145.822/145.860
AAUSAT CUBESAT 2 29 Sep 19:34:11 19:36:54 17° 63° (ENE) 19:39:38 437.432
NOAA 18 29 Sep 19:46:24 19:50:51 25° 266° (W) 19:55:20 137.9125
CUSAT 1 29 Sep 19:46:56 19:53:32 76° 283° (WNW) 20:01:25 437.405
ISS 29 Sep 19:51:09 19:53:55 26° 139° (SE) 19:56:42 145.825
DANDE 29 Sep 19:55:06 20:00:26 56° 93° (E) 20:07:25 436.750
GOMX 1 29 Sep 20:05:26 20:07:30 12° 273° (W) 20:09:33 467.674
NOAA 15 29 Sep 20:09:50 20:11:02 11° 274° (W) 20:12:14 137.62
AO-85 29 Sep 20:14:35 20:18:41 24° 113° (ESE) 20:22:36 145.980
DOVE 4 29 Sep 20:15:17 20:18:38 18° 268° (W) 20:21:52 437.250
COMPASS 1 29 Sep 20:18:46 20:22:53 60° 74° (ENE) 20:27:03 437.405
FUNcube-1 29 Sep 20:25:01 20:28:13 22° 66° (ENE) 20:31:26 145.935
CUBEBUG 2 29 Sep 20:28:32 20:32:39 59° 73° (ENE) 20:36:44 437.445
STRAND 1 29 Sep 20:35:54 20:41:05 87° 106° (ESE) 20:46:15 437.568
DELFI C3 29 Sep 20:38:04 20:39:59 13° 62° (ENE) 20:41:55 145.870
HO-68 29 Sep 20:38:07 20:45:05 53° 259° (W) 20:52:05 435.675
UWE-3 29 Sep 20:42:26 20:46:29 55° 72° (ENE) 20:50:33 435.000/436.395/437.385
SEEDS 29 Sep 20:51:22 20:55:20 41° 262° (W) 20:59:23 437.485
CUTE 1.7 + AOD 2 29 Sep 20:54:06 20:57:46 28° 265° (W) 21:01:29 437.475
PRISM 29 Sep 20:55:15 20:57:18 13° 90° (E) 20:59:21 437.425
CANX-2 29 Sep 20:56:03 20:59:30 24° 266° (W) 21:02:59 2200.000
GONETS M04 29 Sep 20:58:59 21:07:24 52° 271° (W) 21:15:44
Oscar 11 29 Sep 21:01:08 21:05:21 55° 73° (ENE) 21:09:36 145.826/435.025
ZACube-1 29 Sep 21:07:09 21:11:14 65° 74° (ENE) 21:15:22 437.345
AAUSAT CUBESAT 2 29 Sep 21:07:57 21:12:00 50° 261° (W) 21:16:06 437.432
RS-15 29 Sep 21:11:01 21:22:45 77° 309° (NW) 21:35:08 29.354- 29.394
HUMSAT D 29 Sep 21:11:30 21:14:00 16° 62° (ENE) 21:16:31 437.325/437.525
CINEMA 3 29 Sep 21:13:34 21:15:59 14° 269° (W) 21:18:22 145.822/145.860
Cosmos 2499 29 Sep 21:18:40 21:25:36 41° 272° (W) 21:33:03 435.465 / 435.565
SO-50 29 Sep 21:23:34 21:25:01 11° 23° (NNE) 21:26:27 436.795
ISS 29 Sep 21:27:02 21:30:14 54° 336° (NNW) 21:33:27 145.825
CUSAT 1 29 Sep 21:32:25 21:37:05 18° 306° (NW) 21:42:11 437.405
DANDE 29 Sep 21:38:52 21:43:50 28° 299° (WNW) 21:49:56 436.750
AO-85 29 Sep 21:53:50 21:58:53 56° 310° (NW) 22:03:37 145.980
COMPASS 1 29 Sep 21:56:49 21:58:51 13° 271° (W) 22:00:54 437.405
FUNcube-1 29 Sep 22:00:30 22:04:17 35° 263° (W) 22:08:06 145.935
CUBEBUG 2 29 Sep 22:07:44 22:09:41 13° 271° (W) 22:11:36 437.445
DELFI C3 29 Sep 22:10:21 22:14:19 63° 259° (WSW) 22:18:20 145.870
STRAND 1 29 Sep 22:16:44 22:19:34 15° 303° (WNW) 22:22:23 437.568
UWE-3 29 Sep 22:21:10 22:23:19 14° 270° (W) 22:25:28 435.000/436.395/437.385
ESTCUBE 1 29 Sep 22:24:23 22:27:29 18° 62° (ENE) 22:30:36 437.505/2401.250
PRISM 29 Sep 22:28:55 22:32:59 58° 288° (WNW) 22:37:00 437.425
ANTELSAT 29 Sep 22:32:28 22:35:59 23° 94° (E) 22:39:33 437.575/2403.000
Oscar 11 29 Sep 22:39:20 22:41:51 15° 270° (W) 22:44:22 145.826/435.025
HUMSAT D 29 Sep 22:45:14 22:49:13 52° 260° (W) 22:53:16 437.325/437.525
ZACube-1 29 Sep 22:46:30 22:48:00 12° 271° (W) 22:49:30 437.345
TIGRISAT 29 Sep 22:52:02 22:56:03 33° 97° (E) 23:00:08 435.000
JAS-2 29 Sep 23:01:07 23:03:07 11° 79° (E) 23:05:06 435.910
SO-50 29 Sep 23:02:25 23:06:47 40° 46° (NE) 23:11:02 436.795
50 SAT 29 Sep 23:03:23 23:05:45 17° 65° (ENE) 23:08:08 437.505
ISS 29 Sep 23:04:21 23:07:11 26° 357° (N) 23:10:02 145.825
UKube-1 29 Sep 23:04:27 23:06:02 12° 58° (ENE) 23:07:39 .
AUBIESAT-1 29 Sep 23:06:05 23:08:39 17° 60° (ENE) 23:11:06 437.475
AISAT 29 Sep 23:06:57 23:10:35 25° 65° (ENE) 23:14:13 437.250
RS-15 29 Sep 23:26:51 23:37:37 36° 339° (NNW) 23:48:43 29.354- 29.394
UNISAT 6 29 Sep 23:33:07 23:37:33 87° 285° (WNW) 23:42:04 437.425
DX 1 29 Sep 23:34:42 23:38:27 29° 67° (ENE) 23:42:15 434.975-435.025
AO-85 29 Sep 23:37:44 23:40:18 14° 330° (NNW) 23:42:46 145.980
QB50P2 29 Sep 23:40:02 23:42:45 17° 91° (E) 23:45:29 145.880/145.840
POLYITAN 1 29 Sep 23:42:12 23:44:57 17° 92° (E) 23:47:40 437.675
M-CUBED/EXP-1 PRIME 29 Sep 23:43:52 23:47:48 53° 68° (ENE) 23:51:26 437.505
CUBEBUG 1 29 Sep 23:47:57 23:52:21 76° 75° (ENE) 23:56:46 437.445
VELOX 1 29 Sep 23:49:26 23:53:49 62° 73° (ENE) 23:58:13 145.980
ESTCUBE 1 29 Sep 23:59:26 00:03:53 55° 260° (W) 00:08:23 437.505/2401.250
ANTELSAT 30 Sep 00:08:43 00:12:49 39° 290° (WNW) 00:17:00 437.575/2403.000
BUGSAT 1 30 Sep 00:11:32 00:12:50 11° 89° (E) 00:14:08 437.445
DUCHIFAT 1 30 Sep 00:16:12 00:19:59 32° 97° (E) 00:23:45 145.980
SPROUT 30 Sep 00:18:37 00:22:51 68° 74° (ENE) 00:27:06 437.525
QB50P1 30 Sep 00:20:38 00:24:38 41° 98° (E) 00:28:38 145.935-145.965
TIGRISAT 30 Sep 00:28:56 00:32:38 27° 293° (WNW) 00:36:23 435.000
POPSAT HIP 1 30 Sep 00:34:17 00:38:27 57° 101° (E) 00:42:36 437.405
50 SAT 30 Sep 00:35:34 00:38:58 38° 262° (W) 00:42:25 437.505
UKube-1 30 Sep 00:37:06 00:41:26 84° 257° (WSW) 00:45:48 .
BEESAT 3 30 Sep 00:37:25 00:41:02 37° 118° (ESE) 00:44:42 437.485
AUBIESAT-1 30 Sep 00:39:04 00:42:53 43° 255° (WSW) 00:46:26 437.475
ISS 30 Sep 00:41:08 00:44:14 37° 17° (NNE) 00:47:20 145.825
JAS-2 30 Sep 00:41:59 00:49:47 59° 99° (E) 00:57:08 435.910
AISAT 30 Sep 00:42:46 00:46:53 36° 262° (W) 00:51:01 437.250
SO-50 30 Sep 00:43:11 00:47:06 29° 245° (WSW) 00:50:56 436.795
Cosmos 2491 30 Sep 00:45:47 00:53:09 28° 63° (ENE) 01:00:26 435.465 / 435.565
NANOSAT C BR1 30 Sep 00:49:00 00:53:14 80° 103° (ESE) 00:57:27 145.865
DX 1 30 Sep 01:10:45 01:14:35 30° 264° (W) 01:18:28 434.975-435.025
UNISAT 6 30 Sep 01:12:26 01:13:35 11° 302° (WNW) 01:14:45 437.425
QB50P2 30 Sep 01:14:45 01:18:50 48° 289° (WNW) 01:22:54 145.880/145.840
POLYITAN 1 30 Sep 01:16:56 01:21:00 48° 289° (WNW) 01:25:04 437.675
ITUPSAT 1 30 Sep 01:19:37 01:22:34 17° 60° (ENE) 01:25:32 437.325
M-CUBED/EXP-1 PRIME 30 Sep 01:20:23 01:22:31 14° 262° (W) 01:24:34 437.505
CUBEBUG 1 30 Sep 01:27:41 01:29:10 11° 272° (W) 01:30:39 437.445
VELOX 1 30 Sep 01:28:15 01:30:41 14° 270° (W) 01:33:08 145.980
SWISSCUBE 30 Sep 01:30:33 01:34:15 23° 63° (ENE) 01:37:57 437.505
TISAT 1 30 Sep 01:30:53 01:35:04 86° 80° (E) 01:39:16 437.305
BEESAT 2 30 Sep 01:37:11 01:41:09 81° 122° (ESE) 01:45:08 435.950
BEESAT 30 Sep 01:42:58 01:46:54 26° 64° (ENE) 01:50:52 436.000
RS-15 30 Sep 01:44:05 01:54:46 32° 13° (NNE) 02:05:30 29.354- 29.394
BUGSAT 1 30 Sep 01:44:39 01:48:39 65° 285° (WNW) 01:52:38 437.445
Gurwin Techsat 1B 30 Sep 01:46:22 01:48:56 13° 88° (E) 01:51:30 435.225
YUBILEINY 30 Sep 01:49:05 01:55:32 24° 78° (ENE) 02:01:58 435.215
DUCHIFAT 1 30 Sep 01:52:07 01:55:33 25° 294° (WNW) 01:58:57 145.980
QB50P1 30 Sep 01:57:03 02:00:09 20° 296° (WNW) 02:03:15 145.935-145.965
SPROUT 30 Sep 01:57:36 01:59:15 12° 271° (W) 02:00:55 437.525
Oscar 19 30 Sep 02:08:11 02:13:05 42° 98° (E) 02:17:56 437.125/150
POPSAT HIP 1 30 Sep 02:11:18 02:13:48 16° 298° (WNW) 02:16:18 437.405
BEESAT 3 30 Sep 02:15:28 02:18:48 26° 317° (NW) 02:22:08 437.485
ISS 30 Sep 02:17:37 02:20:49 49° 215° (SW) 02:24:00 145.825
NANOSAT C BR1 30 Sep 02:26:52 02:28:21 12° 301° (WNW) 02:29:51 145.865
JAS-2 30 Sep 02:27:25 02:34:23 36° 299° (WNW) 02:41:05 435.910
Cosmos 2491 30 Sep 02:42:03 02:50:52 74° 266° (W) 02:59:37 435.465 / 435.565
AIST 2 30 Sep 02:43:11 02:45:39 16° 111° (ESE) 02:48:09 435.215
MOZHAYETS 4 30 Sep 02:49:34 02:53:00 21° 63° (ENE) 02:56:27
ITUPSAT 1 30 Sep 02:55:08 02:59:52 68° 258° (WSW) 03:04:40 437.325
KKS-1 30 Sep 02:58:45 03:01:41 18° 62° (ENE) 03:04:37 437.445
PCSat 30 Sep 03:04:52 03:07:22 13° 103° (ESE) 03:09:51 145.827
ITAMSAT 1 30 Sep 03:07:00 03:10:52 21° 92° (E) 03:14:42 435.822/435.867
SWISSCUBE 30 Sep 03:07:11 03:11:45 46° 261° (W) 03:16:22 437.505
Cosmos 2504 30 Sep 03:10:41 03:16:27 26° 83° (E) 03:22:07 435.465 / 435.565
BEESAT 2 30 Sep 03:16:57 03:19:29 16° 324° (NW) 03:22:02 435.950
BEESAT 30 Sep 03:20:05 03:24:31 39° 262° (W) 03:29:00 436.000
Gurwin Techsat 1B 30 Sep 03:24:12 03:29:34 85° 287° (WNW) 03:34:53 435.225
STARS 30 Sep 03:26:12 03:28:56 16° 61° (ENE) 03:31:39 437.465
